Weather History for Peoria, IL

Change the Weather History Date:

Saturday, January 18, 2014

  Actual Average Record
Temperature  
Mean Temperature 18 °F 25 °F  
Max Temperature 28 °F 33 °F 59 °F (1951)
Min Temperature 7 °F 17 °F -19 °F (1930)
Degree Days  
Heating Degree Days 47 40  
Month to date heating degree days 819 720  
Since 1 July heating degree days 3245 2998  
Cooling Degree Days 0 0  
Month to date cooling degree days 0 0  
Year to date cooling degree days 0 0  
Moisture  
Dew Point 15 °F    
Average Humidity 76    
Maximum Humidity 84    
Minimum Humidity 67    
Precipitation  
Precipitation 0.04 in 0.05 in 1.01 in (1949)
Month to date precipitation 1.70 1.10  
Year to date precipitation 1.70 1.10  
Snow  
Snow 0.70 in 0.20 in 9.00 in (1918)
Month to date snowfall 12.1 4.0  
Since 1 July snowfall 21.2 12.2  
Snow Depth 1.00 in    
Sea Level Pressure  
Sea Level Pressure 29.79 in    
Wind  
Wind Speed 8 mph (SE)    
Max Wind Speed 18 mph    
Max Gust Speed 25 mph    
Visibility 6 miles    
Events Snow    
T = Trace of Precipitation, MM = Missing Value Source: NWS Daily Summary

Daily Weather History Graph

Daily Weather History Graph

Search for Another Location

Airport:

Trip Planner

Search our weather history database for the weather conditions in past years. The results will help you decide how hot, cold, wet, or windy it might be!

Date:

Astronomy

Jan. 18, 2014 Rise Set
Actual Time 7:19 AM CST 4:59 PM CST
Civil Twilight 6:49 AM CST 5:29 PM CST
Nautical Twilight 6:15 AM CST 6:03 PM CST
Astronomical Twilight 5:43 AM CST 6:35 PM CST
Moon 7:42 PM CST (1/18) 8:17 AM CST (1/18)
Length of Visible Light 10h 40m
Length of Day
9h 40m
Waning Gibbous, 94% of the Moon is Illuminated
Jan 18
Waning Gibbous
Jan 23
Last Quarter
Jan 30
New
Feb 6
First Quarter
Feb 14
Full

Hourly Weather History & Observations

Time (CST) Temp. Windchill Dew Point Humidity Pressure Visibility Wind Dir Wind Speed Gust Speed Precip Events Conditions
12:54 AM 9.0 °F 0.6 °F 3.9 °F 80% 30.03 in 10.0 mi WSW 4.6 mph - N/A   Clear
1:54 AM 10.0 °F 0.4 °F 3.9 °F 76% 30.02 in 10.0 mi WSW 5.8 mph - N/A   Clear
2:54 AM 9.0 °F 0.6 °F 3.9 °F 80% 30.02 in 10.0 mi WSW 4.6 mph - N/A   Clear
3:54 AM 10.0 °F 1.8 °F 5.0 °F 80% 29.96 in 10.0 mi South 4.6 mph - N/A   Clear
4:54 AM 12.9 °F 3.8 °F 8.1 °F 81% 29.94 in 10.0 mi SSE 5.8 mph - N/A   Mostly Cloudy
5:54 AM 15.1 °F 2.5 °F 9.0 °F 77% 29.91 in 10.0 mi South 10.4 mph - N/A   Overcast
6:54 AM 17.1 °F 3.6 °F 10.0 °F 74% 29.88 in 10.0 mi South 12.7 mph - N/A   Overcast
7:54 AM 19.0 °F 7.5 °F 10.0 °F 68% 29.83 in 10.0 mi SE 10.4 mph - N/A   Overcast
8:24 AM 19.9 °F 9.3 °F 10.9 °F 68% 29.78 in 2.5 mi SSE 9.2 mph - 0.00 in Snow Light Snow
8:33 AM 19.9 °F 7.9 °F 12.0 °F 71% 29.77 in 1.5 mi SE 11.5 mph - 0.00 in Snow Light Snow
8:42 AM 19.9 °F 7.3 °F 12.0 °F 71% 29.75 in 2.0 mi SE 12.7 mph - 0.00 in Snow Light Snow
8:54 AM 19.9 °F 6.7 °F 12.9 °F 74% 29.78 in 4.0 mi SE 13.8 mph 21.9 mph 0.00 in Snow Light Snow
9:54 AM 21.9 °F 9.8 °F 12.0 °F 66% 29.76 in 10.0 mi SE 12.7 mph 21.9 mph 0.00 in   Overcast
10:52 AM 23.0 °F 12.4 °F 12.2 °F 63% 29.71 in 2.5 mi SSE 10.4 mph - 0.00 in Snow Light Snow
10:54 AM 23.0 °F 12.4 °F 12.9 °F 65% 29.75 in 2.5 mi SSE 10.4 mph - 0.00 in Snow Light Snow
11:03 AM 23.0 °F 11.7 °F 14.0 °F 68% 29.71 in 1.0 mi SSE 11.5 mph 20.7 mph 0.00 in Snow Light Snow
11:12 AM 23.0 °F 10.6 °F 15.1 °F 72% 29.70 in 0.8 mi SSE 13.8 mph - 0.00 in Snow Light Snow
11:24 AM 23.0 °F 9.6 °F 16.0 °F 74% 29.69 in 1.0 mi SSE 16.1 mph - 0.00 in Snow Light Snow
11:42 AM 23.0 °F 11.1 °F 18.0 °F 81% 29.66 in 0.8 mi SSE 12.7 mph 23.0 mph 0.01 in Snow Light Snow
11:54 AM 23.0 °F 9.2 °F 18.0 °F 81% 29.69 in 1.0 mi SSE 17.3 mph - 0.01 in Snow Light Snow
12:09 PM 23.0 °F 11.7 °F 18.0 °F 81% 29.65 in 1.5 mi SSE 11.5 mph - 0.00 in Snow Light Snow
12:27 PM 24.1 °F 11.0 °F 18.0 °F 77% 29.63 in 1.8 mi SSE 16.1 mph - 0.00 in Snow Light Snow
12:39 PM 24.1 °F 12.5 °F 19.0 °F 81% 29.63 in 3.0 mi SSE 12.7 mph - 0.00 in Snow Light Snow
12:54 PM 24.1 °F 13.1 °F 19.0 °F 81% 29.65 in 9.0 mi SSE 11.5 mph - 0.00 in   Overcast
1:28 PM 25.0 °F 16.3 °F 19.9 °F 81% 29.62 in 1.8 mi SSE 8.1 mph - 0.01 in Snow Light Snow
1:32 PM 25.0 °F 14.8 °F 19.9 °F 81% 29.62 in 0.8 mi SSE 10.4 mph - 0.01 in Snow Light Snow
1:48 PM 24.8 °F 19.1 °F 21.2 °F 86% 29.62 in 1.5 mi SE 4.6 mph - 0.02 in Snow Light Snow
1:54 PM 25.0 °F 18.1 °F 21.0 °F 85% 29.65 in 2.5 mi SSE 5.8 mph - 0.02 in Snow Light Snow
2:05 PM 25.0 °F 17.1 °F 21.0 °F 85% 29.62 in 1.5 mi SSE 6.9 mph - 0.00 in Snow Light Snow
2:14 PM 26.1 °F 19.4 °F 21.0 °F 81% 29.63 in 3.0 mi SSE 5.8 mph - 0.00 in Snow Light Snow
2:54 PM 26.1 °F 20.5 °F 21.9 °F 84% 29.67 in 3.0 mi SE 4.6 mph - 0.00 in Snow Light Snow
3:54 PM 28.0 °F 24.2 °F 23.0 °F 81% 29.70 in 10.0 mi East 3.5 mph - 0.00 in   Overcast
4:54 PM 28.0 °F 24.2 °F 23.0 °F 81% 29.73 in 10.0 mi NNE 3.5 mph - N/A   Overcast
5:11 PM 28.0 °F 22.8 °F 21.9 °F 78% 29.72 in 1.8 mi North 4.6 mph - 0.00 in Snow Light Snow
5:21 PM 27.0 °F 21.6 °F 23.0 °F 85% 29.73 in 2.0 mi NNE 4.6 mph - 0.01 in Snow Light Snow
5:38 PM 27.0 °F 21.6 °F 23.0 °F 85% 29.74 in 3.0 mi NNE 4.6 mph - 0.01 in Snow Light Snow
5:54 PM 27.0 °F 20.5 °F 21.9 °F 81% 29.78 in 4.0 mi North 5.8 mph - 0.01 in Snow Light Snow
6:08 PM 26.1 °F 19.4 °F 21.9 °F 84% 29.76 in 4.0 mi North 5.8 mph - 0.00 in Snow Light Snow
6:54 PM 25.0 °F 14.2 °F 19.9 °F 81% 29.83 in 10.0 mi North 11.5 mph - 0.00 in   Overcast
7:54 PM 23.0 °F 14.7 °F 18.0 °F 81% 29.86 in 10.0 mi NNE 6.9 mph - N/A   Overcast
8:34 PM 21.9 °F 14.5 °F 17.1 °F 82% 29.86 in 10.0 mi NNW 5.8 mph - N/A   Overcast
8:54 PM 21.0 °F 11.4 °F 16.0 °F 81% 29.91 in 10.0 mi NNW 8.1 mph - N/A   Overcast
9:09 PM 19.9 °F 8.6 °F 16.0 °F 85% 29.89 in 10.0 mi NNW 10.4 mph 19.6 mph N/A   Overcast
9:54 PM 19.9 °F 10.1 °F 15.1 °F 81% 29.96 in 10.0 mi NNW 8.1 mph - N/A   Overcast
10:54 PM 18.0 °F 9.8 °F 12.9 °F 81% 29.97 in 10.0 mi NNW 5.8 mph - N/A   Overcast
11:11 PM 17.1 °F 8.7 °F 12.9 °F 84% 29.94 in 9.0 mi NW 5.8 mph - N/A   Overcast
11:21 PM 17.1 °F 8.7 °F 12.9 °F 84% 29.94 in 9.0 mi NNW 5.8 mph - N/A   Overcast
11:51 PM 17.6 °F 9.3 °F 12.2 °F 79% 29.94 in 9.0 mi Variable 5.8 mph - N/A   Overcast
11:54 PM 18.0 °F 11.1 °F 12.9 °F 81% 29.97 in 9.0 mi NW 4.6 mph - N/A   Overcast